QPF
0.00 0.00 0.00 0.00 0.00 0.00 0.00 0.00 0.00 0.00 0.00 0.00 0.00 0.00 0.00 0.00 0.00 0.00 0.00 0.00 0.00 0.00 0.00 0.00 0.00 0.00 0.00 0.01 0.00 0.00 0.00 0.00 0.00 0.00 0.00 0.01 0.01 0.01 0.01 0.00 0.00 0.00 0.01 0.01 0.02 0.03 0.04 0.05 0.07 0.10 0.14 0.14 0.14 0.14 0.14 0.14 0.14 0.14 0.12 0.10 0.11 0.09 0.06 0.04 0.02 0.01 0.01 0.01 0.00
0.00 0.00 0.00 0.00 0.00 0.00 0.00 0.00 0.00 0.00 0.00 0.00 0.00 0.00 0.00 0.00 0.00 0.00 0.00 0.00 0.00 0.00 0.00 0.00 0.00 0.00 0.01 0.00 0.00 0.01 0.01 0.00 0.00 0.00 0.01 0.02 0.02 0.02 0.01 0.01 0.01 0.01 0.01 0.00 0.00 0.01 0.02 0.04 0.07 0.11 0.16 0.19 0.20 0.21 0.20 0.17 0.17 0.17 0.17 0.16 0.14 0.12 0.10 0.10 0.07 0.04 0.02 0.02 0.01
0.00 0.00 0.00 0.00 0.00 0.00 0.00 0.00 0.00 0.00 0.00 0.00 0.00 0.00 0.00 0.00 0.00 0.00 0.00 0.00 0.00 0.00 0.00 0.00 0.00 0.00 0.00 0.00 0.00 0.00 0.00 0.00 0.01 0.02 0.02 0.02 0.01 0.02 0.02 0.02 0.03 0.02 0.01 0.01 0.00 0.01 0.02 0.03 0.05 0.07 0.12 0.17 0.22 0.25 0.26 0.23 0.21 0.20 0.18 0.16 0.13 0.10 0.08 0.06 0.05 0.04 0.03 0.02 0.01
0.00 0.00 0.00 0.00 0.00 0.00 0.00 0.00 0.00 0.00 0.00 0.00 0.00 0.00 0.00 0.00 0.00 0.00 0.00 0.00 0.00 0.00 0.00 0.00 0.00 0.00 0.00 0.00 0.00 0.00 0.00 0.01 0.02 0.02 0.02 0.01 0.01 0.02 0.04 0.04 0.04 0.03 0.03 0.02 0.03 0.03 0.04 0.04 0.04 0.05 0.07 0.11 0.17 0.20 0.23 0.26 0.23 0.20 0.16 0.11 0.10 0.10 0.09 0.06 0.04 0.03 0.02 0.01 0.03
0.00 0.00 0.00 0.00 0.00 0.00 0.00 0.00 0.00 0.00 0.00 0.00 0.00 0.00 0.00 0.00 0.00 0.00 0.00 0.00 0.00 0.00 0.00 0.00 0.00 0.00 0.00 0.00 0.00 0.00 0.00 0.01 0.01 0.01 0.01 0.01 0.03 0.04 0.04 0.04 0.04 0.04 0.03 0.02 0.03 0.03 0.03 0.03 0.03 0.04 0.05 0.06 0.08 0.12 0.16 0.19 0.20 0.17 0.13 0.13 0.11 0.09 0.07 0.07 0.06 0.06 0.06 0.05 0.10
0.00 0.00 0.00 0.00 0.00 0.00 0.00 0.00 0.00 0.00 0.00 0.00 0.00 0.00 0.00 0.00 0.00 0.00 0.00 0.00 0.00 0.00 0.00 0.00 0.00 0.00 0.00 0.00 0.00 0.00 0.00 0.00 0.00 0.00 0.01 0.01 0.03 0.05 0.07 0.08 0.08 0.06 0.04 0.02 0.03 0.03 0.03 0.03 0.04 0.04 0.05 0.07 0.08 0.08 0.08 0.09 0.12 0.14 0.12 0.04 0.04 0.05 0.06 0.08 0.09 0.09 0.10 0.11 0.15
0.00 0.00 0.00 0.00 0.00 0.00 0.00 0.00 0.00 0.00 0.00 0.00 0.00 0.00 0.00 0.00 0.00 0.00 0.00 0.00 0.00 0.00 0.00 0.00 0.00 0.00 0.00 0.00 0.00 0.00 0.00 0.00 0.00 0.00 0.01 0.02 0.02 0.06 0.09 0.09 0.09 0.09 0.08 0.05 0.03 0.03 0.03 0.04 0.04 0.05 0.06 0.08 0.09 0.10 0.10 0.09 0.09 0.09 0.07 0.04 0.02 0.02 0.01 0.02 0.02 0.04 0.06 0.09 0.05
0.00 0.00 0.00 0.00 0.00 0.00 0.00 0.00 0.00 0.00 0.00 0.00 0.00 0.00 0.00 0.00 0.00 0.00 0.00 0.00 0.00 0.00 0.00 0.00 0.00 0.00 0.00 0.00 0.00 0.00 0.00 0.00 0.01 0.02 0.03 0.04 0.07 0.09 0.10 0.10 0.09 0.08 0.08 0.07 0.05 0.05 0.05 0.05 0.05 0.05 0.05 0.06 0.09 0.09 0.09 0.09 0.09 0.08 0.06 0.03 0.02 0.01 0.01 0.01 0.00 0.00 0.01 0.02 0.02
0.00 0.00 0.00 0.00 0.00 0.00 0.00 0.00 0.00 0.00 0.00 0.00 0.00 0.00 0.00 0.00 0.00 0.00 0.00 0.00 0.00 0.00 0.00 0.00 0.00 0.00 0.00 0.00 0.00 0.00 0.00 0.01 0.02 0.03 0.05 0.09 0.12 0.12 0.11 0.11 0.10 0.10 0.09 0.08 0.09 0.08 0.06 0.05 0.05 0.05 0.05 0.04 0.06 0.07 0.08 0.08 0.07 0.06 0.05 0.04 0.02 0.01 0.01 0.01 0.01 0.01 0.01 0.02 0.02
0.00 0.00 0.00 0.00 0.00 0.00 0.00 0.00 0.00 0.00 0.00 0.00 0.00 0.00 0.00 0.00 0.00 0.00 0.00 0.00 0.00 0.00 0.00 0.00 0.00 0.00 0.00 0.00 0.00 0.00 0.00 0.01 0.01 0.03 0.06 0.10 0.13 0.13 0.12 0.13 0.12 0.13 0.13 0.11 0.10 0.07 0.05 0.04 0.04 0.03 0.03 0.03 0.03 0.03 0.04 0.06 0.03 0.03 0.03 0.03 0.03 0.02 0.01 0.01 0.01 0.01 0.01 0.02 0.02
0.00 0.00 0.00 0.00 0.00 0.00 0.00 0.00 0.00 0.00 0.00 0.00 0.00 0.00 0.00 0.00 0.00 0.00 0.00 0.00 0.00 0.00 0.00 0.00 0.00 0.00 0.00 0.00 0.00 0.00 0.00 0.00 0.01 0.03 0.06 0.08 0.09 0.10 0.11 0.13 0.13 0.14 0.13 0.11 0.09 0.07 0.05 0.03 0.03 0.03 0.02 0.02 0.02 0.02 0.01 0.01 0.01 0.01 0.02 0.02 0.02 0.01 0.01 0.01 0.01 0.01 0.01 0.01 0.01
0.00 0.00 0.00 0.00 0.00 0.00 0.00 0.00 0.00 0.00 0.00 0.00 0.00 0.00 0.00 0.00 0.00 0.00 0.00 0.00 0.00 0.00 0.00 0.00 0.00 0.00 0.00 0.00 0.00 0.00 0.00 0.00 0.01 0.02 0.04 0.06 0.06 0.08 0.09 0.10 0.11 0.11 0.11 0.10 0.10 0.09 0.07 0.04 0.03 0.02 0.02 0.02 0.02 0.02 0.01 0.01 0.01 0.01 0.01 0.01 0.01 0.01 0.01 0.01 0.01 0.01 0.01 0.01 0.01
0.00 0.00 0.00 0.00 0.00 0.00 0.00 0.00 0.00 0.00 0.00 0.00 0.00 0.00 0.00 0.00 0.00 0.00 0.00 0.00 0.00 0.00 0.00 0.00 0.00 0.00 0.00 0.00 0.00 0.00 0.00 0.00 0.00 0.01 0.02 0.03 0.04 0.06 0.07 0.08 0.08 0.07 0.06 0.07 0.08 0.08 0.07 0.06 0.04 0.03 0.03 0.02 0.02 0.02 0.01 0.01 0.01 0.01 0.01 0.01 0.01 0.01 0.01 0.01 0.01 0.01 0.01 0.01 0.01
0.00 0.00 0.00 0.00 0.00 0.00 0.00 0.00 0.00 0.00 0.00 0.00 0.00 0.00 0.00 0.00 0.00 0.00 0.00 0.00 0.00 0.00 0.00 0.00 0.00 0.00 0.00 0.00 0.00 0.00 0.00 0.00 0.00 0.00 0.01 0.01 0.02 0.04 0.05 0.06 0.06 0.06 0.05 0.05 0.05 0.05 0.04 0.04 0.04 0.04 0.04 0.03 0.02 0.02 0.02 0.01 0.01 0.01 0.01 0.01 0.01 0.01 0.01 0.01 0.01 0.01 0.01 0.01 0.02
0.00 0.00 0.00 0.00 0.00 0.00 0.00 0.00 0.00 0.00 0.00 0.00 0.00 0.00 0.00 0.00 0.00 0.00 0.00 0.00 0.00 0.00 0.00 0.00 0.00 0.00 0.00 0.00 0.00 0.00 0.00 0.00 0.00 0.00 0.00 0.00 0.01 0.02 0.03 0.04 0.04 0.06 0.07 0.06 0.05 0.04 0.03 0.02 0.02 0.03 0.03 0.03 0.02 0.02 0.01 0.01 0.01 0.01 0.01 0.01 0.01 0.01 0.01 0.01 0.01 0.03 0.04 0.04 0.05
0.00 0.00 0.00 0.00 0.00 0.00 0.00 0.00 0.00 0.00 0.00 0.00 0.00 0.00 0.00 0.00 0.00 0.00 0.00 0.00 0.00 0.00 0.00 0.00 0.00 0.00 0.00 0.00 0.00 0.00 0.00 0.00 0.00 0.00 0.00 0.00 0.01 0.01 0.01 0.02 0.03 0.05 0.06 0.07 0.05 0.04 0.03 0.02 0.02 0.02 0.02 0.02 0.02 0.01 0.01 0.01 0.01 0.01 0.01 0.01 0.02 0.03 0.03 0.04 0.04 0.06 0.07 0.07 0.07
0.00 0.00 0.00 0.00 0.00 0.00 0.00 0.00 0.00 0.00 0.00 0.00 0.00 0.00 0.00 0.00 0.00 0.00 0.00 0.00 0.00 0.00 0.00 0.00 0.00 0.00 0.00 0.00 0.00 0.00 0.00 0.00 0.00 0.00 0.00 0.01 0.01 0.01 0.02 0.02 0.02 0.03 0.03 0.05 0.05 0.05 0.05 0.04 0.04 0.03 0.02 0.02 0.01 0.01 0.01 0.01 0.01 0.01 0.01 0.02 0.03 0.04 0.05 0.06 0.06 0.06 0.06 0.07 0.07
0.00 0.00 0.00 0.00 0.00 0.00 0.00 0.00 0.00 0.00 0.00 0.00 0.00 0.00 0.00 0.00 0.00 0.00 0.00 0.00 0.00 0.00 0.00 0.00 0.00 0.00 0.00 0.00 0.00 0.00 0.00 0.00 0.00 0.01 0.01 0.01 0.02 0.02 0.02 0.02 0.02 0.02 0.02 0.03 0.04 0.04 0.05 0.05 0.05 0.05 0.04 0.03 0.02 0.01 0.01 0.01 0.01 0.01 0.02 0.02 0.02 0.03 0.04 0.05 0.03 0.03 0.03 0.04 0.04
0.00 0.00 0.00 0.00 0.00 0.00 0.00 0.00 0.00 0.00 0.00 0.00 0.00 0.00 0.00 0.00 0.00 0.00 0.00 0.00 0.00 0.00 0.00 0.00 0.00 0.00 0.00 0.00 0.00 0.00 0.01 0.01 0.01 0.01 0.01 0.02 0.02 0.02 0.02 0.02 0.02 0.02 0.02 0.02 0.02 0.03 0.04 0.05 0.06 0.06 0.06 0.04 0.04 0.03 0.02 0.01 0.01 0.02 0.02 0.02 0.02 0.02 0.02 0.02 0.02 0.02 0.02 0.02 0.02
0.00 0.00 0.00 0.00 0.00 0.00 0.00 0.00 0.00 0.00 0.00 0.00 0.00 0.00 0.00 0.00 0.00 0.00 0.00 0.00 0.00 0.00 0.00 0.00 0.00 0.00 0.00 0.00 0.01 0.01 0.01 0.01 0.02 0.02 0.02 0.02 0.02 0.02 0.01 0.01 0.02 0.02 0.02 0.02 0.02 0.03 0.04 0.05 0.05 0.06 0.05 0.05 0.06 0.05 0.04 0.03 0.02 0.02 0.02 0.02 0.02 0.02 0.01 0.01 0.01 0.01 0.02 0.02 0.02
0.00 0.00 0.00 0.00 0.00 0.00 0.00 0.00 0.00 0.00 0.00 0.00 0.00 0.00 0.00 0.00 0.00 0.00 0.00 0.00 0.00 0.00 0.00 0.00 0.00 0.00 0.00 0.01 0.01 0.01 0.01 0.02 0.02 0.02 0.02 0.02 0.02 0.02 0.01 0.02 0.02 0.02 0.02 0.02 0.02 0.03 0.03 0.04 0.05 0.06 0.06 0.05 0.06 0.06 0.06 0.05 0.05 0.05 0.04 0.03 0.02 0.02 0.02 0.03 0.02 0.02 0.02 0.02 0.02
0.00 0.00 0.00 0.00 0.00 0.00 0.00 0.00 0.00 0.00 0.00 0.00 0.00 0.00 0.00 0.00 0.00 0.00 0.00 0.00 0.00 0.00 0.00 0.00 0.00 0.00 0.00 0.01 0.01 0.01 0.02 0.02 0.02 0.02 0.02 0.02 0.03 0.03 0.03 0.03 0.03 0.03 0.03 0.03 0.03 0.03 0.02 0.03 0.03 0.04 0.04 0.03 0.03 0.03 0.04 0.04 0.04 0.05 0.05 0.05 0.04 0.03 0.03 0.05 0.04 0.04 0.04 0.03 0.03
0.00 0.00 0.00 0.00 0.00 0.00 0.00 0.00 0.00 0.00 0.00 0.00 0.00 0.00 0.00 0.00 0.00 0.00 0.00 0.00 0.00 0.00 0.01 0.01 0.01 0.00 0.00 0.01 0.01 0.02 0.02 0.02 0.03 0.03 0.03 0.03 0.04 0.04 0.05 0.05 0.04 0.04 0.04 0.04 0.04 0.03 0.03 0.03 0.02 0.02 0.02 0.02 0.02 0.02 0.02 0.03 0.04 0.04 0.05 0.05 0.05 0.05 0.06 0.06 0.06 0.06 0.05 0.05 0.04
0.00 0.00 0.00 0.00 0.00 0.00 0.00 0.00 0.00 0.00 0.00 0.00 0.00 0.00 0.00 0.00 0.00 0.00 0.00 0.00 0.00 0.01 0.01 0.01 0.01 0.01 0.01 0.01 0.01 0.02 0.03 0.03 0.03 0.03 0.03 0.04 0.05 0.06 0.07 0.08 0.06 0.05 0.04 0.04 0.04 0.04 0.04 0.04 0.03 0.03 0.03 0.02 0.02 0.02 0.03 0.03 0.04 0.05 0.05 0.06 0.06 0.06 0.06 0.06 0.06 0.06 0.06 0.05 0.05
0.00 0.00 0.00 0.00 0.00 0.00 0.00 0.00 0.00 0.00 0.00 0.00 0.00 0.00 0.00 0.00 0.00 0.00 0.00 0.00 0.00 0.00 0.01 0.01 0.01 0.01 0.01 0.01 0.01 0.02 0.03 0.03 0.03 0.04 0.04 0.03 0.03 0.04 0.05 0.07 0.09 0.08 0.05 0.03 0.03 0.03 0.04 0.04 0.04 0.04 0.03 0.02 0.02 0.03 0.03 0.04 0.04 0.05 0.05 0.06 0.06 0.06 0.06 0.06 0.06 0.06 0.05 0.05 0.04
0.00 0.00 0.00 0.00 0.00 0.00 0.00 0.00 0.00 0.00 0.00 0.00 0.00 0.00 0.00 0.00 0.00 0.00 0.00 0.00 0.00 0.00 0.01 0.01 0.01 0.01 0.01 0.01 0.02 0.02 0.02 0.03 0.03 0.03 0.04 0.04 0.03 0.03 0.03 0.03 0.06 0.07 0.06 0.04 0.02 0.02 0.02 0.03 0.03 0.02 0.02 0.02 0.03 0.03 0.04 0.04 0.04 0.05 0.05 0.05 0.06 0.06 0.06 0.05 0.05 0.05 0.04 0.04 0.03
0.00 0.00 0.00 0.00 0.00 0.00 0.00 0.00 0.00 0.00 0.00 0.00 0.00 0.00 0.00 0.00 0.00 0.00 0.00 0.00 0.00 0.00 0.01 0.01 0.01 0.01 0.02 0.02 0.02 0.02 0.02 0.02 0.02 0.02 0.03 0.03 0.03 0.03 0.02 0.02 0.03 0.03 0.03 0.03 0.02 0.02 0.01 0.02 0.01 0.01 0.02 0.02 0.03 0.03 0.04 0.04 0.04 0.05 0.05 0.05 0.05 0.05 0.05 0.05 0.05 0.04 0.04 0.03 0.03
0.00 0.00 0.00 0.00 0.00 0.00 0.00 0.01 0.01 0.01 0.01 0.01 0.01 0.01 0.01 0.00 0.00 0.00 0.00 0.00 0.00 0.01 0.01 0.01 0.01 0.02 0.02 0.02 0.02 0.02 0.02 0.02 0.02 0.02 0.02 0.02 0.02 0.02 0.02 0.02 0.02 0.02 0.02 0.01 0.01 0.01 0.01 0.01 0.01 0.01 0.02 0.02 0.03 0.03 0.04 0.05 0.05 0.05 0.05 0.05 0.05 0.05 0.05 0.05 0.05 0.05 0.04 0.03 0.03
0.00 0.00 0.00 0.00 0.00 0.01 0.01 0.01 0.01 0.02 0.02 0.02 0.02 0.01 0.01 0.01 0.01 0.01 0.01 0.01 0.01 0.01 0.01 0.01 0.01 0.02 0.02 0.02 0.02 0.03 0.03 0.03 0.02 0.02 0.02 0.02 0.02 0.02 0.02 0.02 0.02 0.02 0.01 0.01 0.01 0.01 0.01 0.01 0.02 0.02 0.02 0.03 0.03 0.03 0.04 0.04 0.04 0.04 0.05 0.05 0.05 0.05 0.05 0.05 0.05 0.05 0.04 0.04 0.02
0.00 0.00 0.00 0.00 0.00 0.00 0.00 0.00 0.01 0.01 0.01 0.01 0.01 0.01 0.01 0.01 0.01 0.01 0.01 0.01 0.01 0.01 0.01 0.01 0.01 0.02 0.02 0.02 0.02 0.03 0.03 0.03 0.02 0.02 0.02 0.02 0.02 0.02 0.02 0.02 0.02 0.02 0.02 0.02 0.01 0.01 0.02 0.02 0.02 0.03 0.03 0.03 0.03 0.03 0.04 0.04 0.04 0.04 0.04 0.04 0.04 0.04 0.04 0.04 0.04 0.04 0.03 0.03 0.02
0.00 0.00 0.00 0.00 0.00 0.00 0.00 0.00 0.00 0.00 0.00 0.00 0.00 0.00 0.00 0.00 0.00 0.00 0.00 0.01 0.01 0.01 0.01 0.01 0.01 0.02 0.02 0.02 0.02 0.02 0.02 0.02 0.02 0.02 0.01 0.01 0.01 0.02 0.02 0.02 0.02 0.02 0.02 0.02 0.02 0.02 0.03 0.03 0.03 0.03 0.03 0.03 0.03 0.04 0.04 0.04 0.04 0.04 0.05 0.05 0.04 0.04 0.04 0.04 0.03 0.03 0.02 0.02 0.01
0.00 0.00 0.00 0.00 0.00 0.00 0.00 0.00 0.00 0.00 0.00 0.00 0.00 0.00 0.00 0.00 0.01 0.01 0.01 0.01 0.01 0.01 0.02 0.02 0.02 0.02 0.02 0.02 0.02 0.02 0.02 0.02 0.02 0.01 0.01 0.01 0.01 0.02 0.02 0.02 0.02 0.02 0.02 0.02 0.03 0.03 0.03 0.03 0.03 0.03 0.03 0.03 0.04 0.04 0.04 0.04 0.05 0.05 0.05 0.05 0.04 0.04 0.04 0.03 0.03 0.02 0.02 0.01 0.00
0.00 0.00 0.00 0.00 0.00 0.00 0.00 0.00 0.00 0.00 0.00 0.00 0.01 0.01 0.01 0.01 0.01 0.01 0.01 0.02 0.02 0.02 0.02 0.01 0.01 0.01 0.01 0.01 0.01 0.01 0.01 0.01 0.01 0.01 0.01 0.01 0.01 0.02 0.02 0.02 0.02 0.02 0.03 0.02 0.03 0.03 0.03 0.03 0.03 0.04 0.04 0.04 0.04 0.04 0.05 0.05 0.05 0.05 0.05 0.05 0.05 0.04 0.03 0.03 0.02 0.01 0.01 0.01 0.00
0.00 0.00 0.00 0.00 0.00 0.00 0.00 0.00 0.00 0.00 0.01 0.01 0.01 0.01 0.01 0.01 0.01 0.01 0.01 0.01 0.01 0.01 0.01 0.01 0.01 0.01 0.01 0.01 0.01 0.01 0.01 0.01 0.01 0.01 0.01 0.01 0.02 0.02 0.02 0.02 0.03 0.03 0.03 0.03 0.03 0.03 0.03 0.03 0.04 0.04 0.04 0.04 0.05 0.05 0.06 0.06 0.06 0.06 0.05 0.05 0.04 0.04 0.03 0.01 0.01 0.00 0.00 0.00 0.00
0.01 0.01 0.01 0.01 0.01 0.01 0.00 0.00 0.00 0.01 0.01 0.01 0.01 0.01 0.01 0.01 0.01 0.01 0.01 0.01 0.01 0.01 0.01 0.01 0.01 0.01 0.01 0.01 0.01 0.01 0.01 0.01 0.02 0.02 0.02 0.02 0.02 0.02 0.02 0.03 0.03 0.03 0.04 0.03 0.03 0.03 0.03 0.04 0.04 0.04 0.05 0.05 0.06 0.06 0.07 0.07 0.06 0.06 0.05 0.04 0.03 0.02 0.02 0.01 0.00 0.00 0.00 0.00 0.00
0.02 0.01 0.01 0.01 0.01 0.00 0.00 0.00 0.00 0.00 0.01 0.01 0.01 0.01 0.01 0.01 0.01 0.01 0.01 0.01 0.01 0.01 0.01 0.01 0.01 0.01 0.01 0.01 0.01 0.01 0.01 0.01 0.02 0.02 0.02 0.02 0.01 0.02 0.02 0.03 0.04 0.04 0.04 0.04 0.04 0.04 0.04 0.05 0.05 0.06 0.06 0.07 0.07 0.07 0.07 0.07 0.06 0.05 0.04 0.03 0.02 0.01 0.00 0.00 0.00 0.00 0.00 0.00 0.00
0.02 0.01 0.01 0.01 0.01 0.01 0.00 0.00 0.00 0.01 0.01 0.01 0.01 0.01 0.01 0.01 0.01 0.01 0.01 0.00 0.01 0.01 0.01 0.01 0.01 0.01 0.01 0.01 0.01 0.01 0.01 0.01 0.02 0.02 0.01 0.01 0.01 0.02 0.02 0.03 0.04 0.04 0.05 0.05 0.05 0.05 0.06 0.06 0.07 0.07 0.08 0.08 0.08 0.08 0.07 0.06 0.04 0.03 0.02 0.01 0.01 0.00 0.00 0.00 0.00 0.00 0.00 0.00 0.00
0.02 0.01 0.01 0.01 0.01 0.01 0.01 0.01 0.01 0.01 0.01 0.01 0.01 0.01 0.01 0.01 0.01 0.01 0.01 0.00 0.01 0.01 0.01 0.01 0.01 0.02 0.02 0.02 0.02 0.02 0.02 0.02 0.02 0.01 0.01 0.01 0.01 0.02 0.02 0.03 0.05 0.05 0.06 0.06 0.06 0.07 0.08 0.08 0.09 0.09 0.09 0.09 0.08 0.08 0.06 0.03 0.02 0.01 0.00 0.00 0.00 0.00 0.00 0.00 0.00 0.00 0.00 0.00 0.00
0.02 0.01 0.01 0.01 0.01 0.01 0.01 0.01 0.01 0.01 0.01 0.01 0.01 0.01 0.01 0.01 0.01 0.01 0.01 0.01 0.01 0.01 0.01 0.01 0.02 0.02 0.02 0.02 0.02 0.02 0.02 0.02 0.02 0.02 0.02 0.02 0.02 0.02 0.03 0.04 0.06 0.07 0.07 0.08 0.09 0.09 0.09 0.10 0.09 0.09 0.09 0.08 0.08 0.07 0.05 0.02 0.01 0.00 0.00 0.00 0.00 0.00 0.00 0.00 0.00 0.00 0.00 0.00 0.00
0.01 0.01 0.01 0.01 0.00 0.00 0.00 0.00 0.01 0.01 0.01 0.01 0.01 0.01 0.01 0.01 0.01 0.01 0.01 0.01 0.01 0.01 0.01 0.02 0.02 0.02 0.02 0.02 0.02 0.03 0.03 0.03 0.03 0.03 0.03 0.03 0.03 0.04 0.06 0.07 0.09 0.09 0.10 0.10 0.10 0.10 0.09 0.09 0.09 0.08 0.07 0.07 0.06 0.04 0.02 0.01 0.00 0.00 0.00 0.00 0.00 0.00 0.00 0.00 0.00 0.00 0.00 0.00 0.00
0.01 0.01 0.01 0.00 0.00 0.00 0.00 0.00 0.01 0.01 0.01 0.01 0.01 0.01 0.01 0.01 0.01 0.01 0.01 0.01 0.02 0.02 0.02 0.02 0.02 0.02 0.02 0.02 0.02 0.02 0.03 0.04 0.04 0.05 0.05 0.05 0.07 0.08 0.10 0.11 0.11 0.11 0.11 0.11 0.09 0.09 0.08 0.07 0.07 0.06 0.05 0.04 0.03 0.02 0.00 0.00 0.00 0.00 0.00 0.00 0.00 0.00 0.00 0.00 0.00 0.00 0.00 0.00 0.00
MSLP
1009.25 1009.13 1008.97 1008.85 1008.85 1008.89 1008.97 1008.97 1009.01 1009.05 1009.13 1009.21 1009.25 1009.37 1009.45 1009.57 1009.69 1009.73 1009.85 1009.97 1010.09 1010.25 1010.37 1010.45 1010.57 1010.65 1010.73 1010.85 1011.01 1011.17 1011.29 1011.41 1011.61 1011.85 1012.05 1012.21 1012.37 1012.53 1012.73 1012.93 1013.09 1013.25 1013.49 1013.69 1013.97 1014.21 1014.45 1014.73 1015.01 1015.33 1015.57 1015.73 1015.97 1016.25 1016.65 1016.93 1017.13 1017.25 1017.45 1017.65 1017.85 1017.93 1018.01 1018.13 1018.25 1018.41 1018.61 1018.73 1018.85
1009.25 1009.13 1008.97 1008.85 1008.81 1008.81 1008.81 1008.81 1008.85 1008.93 1008.97 1009.01 1009.09 1009.13 1009.21 1009.33 1009.41 1009.53 1009.65 1009.73 1009.89 1010.01 1010.17 1010.25 1010.41 1010.53 1010.65 1010.81 1010.97 1011.17 1011.33 1011.45 1011.65 1011.85 1012.09 1012.25 1012.41 1012.65 1012.85 1013.01 1013.13 1013.37 1013.57 1013.85 1014.09 1014.25 1014.41 1014.65 1014.93 1015.25 1015.53 1015.81 1015.97 1016.21 1016.53 1016.77 1016.93 1017.13 1017.33 1017.53 1017.69 1017.89 1018.05 1018.25 1018.41 1018.57 1018.69 1018.81 1018.85
1009.21 1009.13 1008.97 1008.85 1008.73 1008.69 1008.69 1008.69 1008.69 1008.73 1008.77 1008.85 1008.89 1008.93 1009.01 1009.13 1009.21 1009.33 1009.41 1009.53 1009.69 1009.89 1010.05 1010.21 1010.29 1010.41 1010.57 1010.77 1010.97 1011.17 1011.33 1011.49 1011.73 1011.97 1012.17 1012.33 1012.45 1012.73 1012.97 1013.17 1013.29 1013.49 1013.77 1014.09 1014.29 1014.41 1014.57 1014.65 1014.81 1015.09 1015.37 1015.65 1015.81 1015.97 1016.25 1016.57 1016.77 1016.89 1017.09 1017.25 1017.49 1017.73 1018.01 1018.25 1018.49 1018.69 1018.81 1018.85 1018.77
1009.13 1009.09 1008.97 1008.85 1008.69 1008.57 1008.53 1008.49 1008.49 1008.53 1008.57 1008.61 1008.69 1008.81 1008.93 1008.97 1009.09 1009.17 1009.25 1009.33 1009.53 1009.73 1009.97 1010.13 1010.25 1010.41 1010.57 1010.73 1010.97 1011.17 1011.37 1011.53 1011.81 1012.01 1012.25 1012.41 1012.57 1012.85 1013.13 1013.29 1013.45 1013.61 1013.85 1014.21 1014.53 1014.69 1014.81 1014.85 1014.89 1015.01 1015.25 1015.49 1015.61 1015.77 1016.01 1016.41 1016.65 1016.81 1016.97 1017.09 1017.17 1017.41 1017.69 1018.05 1018.37 1018.57 1018.69 1018.69 1018.69
1009.01 1008.97 1008.89 1008.81 1008.65 1008.49 1008.41 1008.37 1008.33 1008.33 1008.37 1008.45 1008.57 1008.69 1008.73 1008.85 1008.93 1009.01 1009.13 1009.25 1009.37 1009.53 1009.77 1010.01 1010.21 1010.41 1010.61 1010.81 1010.97 1011.21 1011.41 1011.65 1011.89 1012.13 1012.29 1012.49 1012.69 1012.93 1013.17 1013.41 1013.53 1013.69 1013.93 1014.25 1014.57 1014.81 1014.97 1015.13 1015.13 1015.17 1015.29 1015.41 1015.57 1015.73 1015.97 1016.29 1016.61 1016.85 1017.01 1017.09 1017.13 1017.25 1017.45 1017.81 1018.13 1018.41 1018.53 1018.57 1018.65
1008.93 1008.85 1008.85 1008.69 1008.61 1008.49 1008.37 1008.25 1008.21 1008.21 1008.25 1008.29 1008.41 1008.49 1008.57 1008.65 1008.77 1008.93 1009.09 1009.21 1009.29 1009.45 1009.69 1009.97 1010.25 1010.53 1010.73 1010.89 1011.09 1011.29 1011.53 1011.77 1011.97 1012.21 1012.41 1012.61 1012.81 1013.01 1013.25 1013.41 1013.65 1013.77 1013.97 1014.25 1014.49 1014.73 1014.97 1015.13 1015.25 1015.33 1015.41 1015.49 1015.69 1015.89 1016.13 1016.41 1016.69 1016.89 1017.09 1017.21 1017.33 1017.41 1017.53 1017.77 1018.05 1018.25 1018.33 1018.41 1018.57
1008.85 1008.77 1008.69 1008.61 1008.53 1008.41 1008.33 1008.21 1008.17 1008.13 1008.17 1008.21 1008.29 1008.37 1008.41 1008.49 1008.65 1008.85 1008.97 1009.13 1009.37 1009.57 1009.85 1010.13 1010.37 1010.61 1010.85 1011.05 1011.25 1011.41 1011.69 1011.93 1012.13 1012.29 1012.53 1012.77 1012.97 1013.13 1013.33 1013.57 1013.77 1013.89 1014.05 1014.25 1014.45 1014.69 1014.89 1015.05 1015.21 1015.33 1015.45 1015.61 1015.81 1016.09 1016.37 1016.57 1016.77 1016.93 1017.09 1017.25 1017.45 1017.57 1017.69 1017.89 1018.05 1018.17 1018.25 1018.25 1018.41
1008.89 1008.77 1008.65 1008.53 1008.41 1008.37 1008.29 1008.21 1008.13 1008.13 1008.13 1008.13 1008.21 1008.25 1008.33 1008.41 1008.57 1008.77 1008.97 1009.17 1009.41 1009.69 1009.97 1010.25 1010.41 1010.61 1010.89 1011.13 1011.33 1011.53 1011.77 1012.01 1012.25 1012.49 1012.69 1012.97 1013.13 1013.25 1013.45 1013.69 1013.85 1014.01 1014.17 1014.37 1014.57 1014.81 1014.97 1015.05 1015.17 1015.29 1015.41 1015.69 1015.93 1016.25 1016.45 1016.57 1016.73 1016.89 1017.13 1017.33 1017.53 1017.69 1017.85 1018.01 1018.13 1018.21 1018.25 1018.25 1018.41
1008.85 1008.73 1008.61 1008.49 1008.41 1008.29 1008.25 1008.17 1008.13 1008.13 1008.13 1008.13 1008.13 1008.21 1008.33 1008.45 1008.65 1008.85 1009.01 1009.25 1009.41 1009.69 1010.01 1010.25 1010.45 1010.69 1010.97 1011.25 1011.49 1011.69 1011.93 1012.17 1012.45 1012.69 1012.93 1013.13 1013.25 1013.41 1013.61 1013.81 1013.93 1014.05 1014.25 1014.49 1014.69 1014.89 1015.01 1015.13 1015.25 1015.37 1015.53 1015.73 1015.97 1016.25 1016.45 1016.57 1016.73 1016.93 1017.17 1017.41 1017.65 1017.81 1017.97 1018.13 1018.25 1018.29 1018.33 1018.41 1018.57
1008.77 1008.65 1008.57 1008.41 1008.33 1008.25 1008.21 1008.17 1008.13 1008.13 1008.13 1008.17 1008.21 1008.29 1008.45 1008.65 1008.81 1008.97 1009.13 1009.29 1009.53 1009.81 1010.09 1010.29 1010.57 1010.85 1011.13 1011.41 1011.69 1011.97 1012.17 1012.41 1012.65 1012.85 1013.05 1013.21 1013.33 1013.49 1013.65 1013.85 1013.97 1014.09 1014.25 1014.49 1014.73 1014.93 1015.05 1015.17 1015.33 1015.53 1015.69 1015.81 1015.97 1016.17 1016.41 1016.61 1016.81 1017.01 1017.29 1017.53 1017.69 1017.85 1018.09 1018.29 1018.41 1018.45 1018.53 1018.65 1018.77
1008.73 1008.61 1008.49 1008.37 1008.25 1008.21 1008.17 1008.17 1008.17 1008.17 1008.21 1008.25 1008.37 1008.49 1008.65 1008.85 1009.05 1009.21 1009.37 1009.53 1009.73 1009.97 1010.21 1010.41 1010.69 1010.97 1011.25 1011.53 1011.81 1012.13 1012.37 1012.61 1012.85 1013.09 1013.25 1013.33 1013.41 1013.53 1013.69 1013.85 1014.01 1014.13 1014.29 1014.53 1014.69 1014.85 1015.01 1015.17 1015.41 1015.65 1015.85 1015.97 1016.09 1016.25 1016.41 1016.65 1016.89 1017.13 1017.37 1017.57 1017.77 1017.97 1018.17 1018.41 1018.53 1018.61 1018.69 1018.85 1018.97
1008.69 1008.57 1008.45 1008.37 1008.29 1008.21 1008.13 1008.13 1008.17 1008.21 1008.29 1008.41 1008.57 1008.77 1008.97 1009.13 1009.33 1009.53 1009.69 1009.85 1010.01 1010.21 1010.41 1010.65 1010.89 1011.13 1011.41 1011.65 1011.93 1012.21 1012.45 1012.73 1012.97 1013.21 1013.37 1013.49 1013.57 1013.69 1013.85 1013.97 1014.13 1014.25 1014.41 1014.57 1014.73 1014.85 1014.97 1015.17 1015.41 1015.69 1015.89 1016.09 1016.21 1016.33 1016.53 1016.73 1016.97 1017.21 1017.41 1017.65 1017.85 1018.05 1018.25 1018.45 1018.61 1018.73 1018.85 1019.01 1019.17
1008.65 1008.57 1008.41 1008.33 1008.29 1008.25 1008.17 1008.17 1008.17 1008.25 1008.41 1008.61 1008.97 1009.17 1009.37 1009.53 1009.69 1009.85 1009.97 1010.17 1010.29 1010.49 1010.73 1010.97 1011.17 1011.41 1011.57 1011.81 1012.01 1012.25 1012.49 1012.77 1013.01 1013.25 1013.45 1013.61 1013.77 1013.89 1014.01 1014.13 1014.25 1014.37 1014.53 1014.69 1014.85 1014.97 1015.05 1015.25 1015.41 1015.69 1015.97 1016.17 1016.29 1016.45 1016.61 1016.81 1017.05 1017.25 1017.45 1017.69 1017.93 1018.13 1018.37 1018.53 1018.69 1018.85 1019.01 1019.17 1019.29
1008.61 1008.53 1008.41 1008.37 1008.33 1008.25 1008.21 1008.21 1008.25 1008.41 1008.69 1008.97 1009.29 1009.53 1009.73 1009.93 1010.01 1010.13 1010.29 1010.49 1010.69 1010.85 1011.09 1011.29 1011.49 1011.65 1011.81 1011.97 1012.13 1012.33 1012.57 1012.81 1013.01 1013.25 1013.49 1013.69 1013.89 1014.05 1014.17 1014.25 1014.37 1014.49 1014.65 1014.81 1014.97 1015.13 1015.21 1015.33 1015.53 1015.73 1015.97 1016.25 1016.41 1016.57 1016.69 1016.93 1017.13 1017.33 1017.53 1017.73 1017.97 1018.13 1018.33 1018.57 1018.73 1018.93 1019.13 1019.29 1019.45
1008.61 1008.53 1008.45 1008.41 1008.37 1008.29 1008.25 1008.37 1008.53 1008.81 1009.13 1009.41 1009.65 1009.85 1010.01 1010.17 1010.29 1010.49 1010.65 1010.85 1010.97 1011.17 1011.37 1011.53 1011.73 1011.89 1012.05 1012.13 1012.25 1012.45 1012.65 1012.85 1013.09 1013.29 1013.53 1013.77 1013.97 1014.13 1014.25 1014.41 1014.53 1014.65 1014.81 1014.97 1015.13 1015.21 1015.29 1015.41 1015.61 1015.85 1016.09 1016.29 1016.49 1016.65 1016.85 1017.05 1017.25 1017.41 1017.61 1017.77 1017.97 1018.17 1018.41 1018.61 1018.81 1018.97 1019.17 1019.37 1019.57
1008.69 1008.65 1008.57 1008.45 1008.41 1008.37 1008.41 1008.61 1008.97 1009.25 1009.49 1009.69 1009.93 1010.09 1010.25 1010.41 1010.57 1010.77 1010.97 1011.13 1011.25 1011.41 1011.57 1011.77 1011.93 1012.13 1012.25 1012.41 1012.53 1012.69 1012.85 1012.97 1013.21 1013.41 1013.61 1013.81 1014.01 1014.17 1014.33 1014.49 1014.65 1014.81 1014.97 1015.13 1015.25 1015.33 1015.41 1015.57 1015.81 1015.97 1016.21 1016.41 1016.57 1016.73 1016.93 1017.13 1017.37 1017.53 1017.73 1017.89 1018.13 1018.29 1018.53 1018.69 1018.89 1019.09 1019.25 1019.45 1019.69
1008.85 1008.77 1008.69 1008.57 1008.57 1008.61 1008.73 1008.97 1009.25 1009.53 1009.73 1009.89 1010.09 1010.25 1010.41 1010.61 1010.85 1010.97 1011.17 1011.29 1011.41 1011.61 1011.81 1011.97 1012.13 1012.29 1012.45 1012.61 1012.73 1012.89 1013.01 1013.17 1013.41 1013.57 1013.77 1013.97 1014.13 1014.29 1014.45 1014.65 1014.85 1014.97 1015.13 1015.25 1015.37 1015.53 1015.65 1015.81 1015.97 1016.17 1016.37 1016.57 1016.69 1016.89 1017.09 1017.25 1017.49 1017.69 1017.89 1018.09 1018.29 1018.49 1018.65 1018.85 1019.01 1019.21 1019.41 1019.57 1019.77
1008.97 1008.89 1008.89 1008.85 1008.89 1008.97 1009.13 1009.25 1009.45 1009.69 1009.89 1010.09 1010.25 1010.41 1010.65 1010.85 1010.97 1011.17 1011.33 1011.49 1011.65 1011.81 1011.97 1012.17 1012.37 1012.53 1012.69 1012.85 1012.97 1013.13 1013.29 1013.45 1013.69 1013.85 1014.05 1014.17 1014.37 1014.53 1014.69 1014.85 1015.05 1015.21 1015.33 1015.41 1015.53 1015.69 1015.85 1016.05 1016.21 1016.33 1016.53 1016.73 1016.89 1017.09 1017.25 1017.41 1017.61 1017.85 1018.05 1018.25 1018.45 1018.65 1018.81 1018.97 1019.17 1019.37 1019.53 1019.69 1019.85
1009.13 1009.13 1009.13 1009.21 1009.25 1009.33 1009.41 1009.53 1009.69 1009.85 1010.09 1010.25 1010.49 1010.69 1010.85 1011.05 1011.21 1011.41 1011.53 1011.73 1011.93 1012.09 1012.21 1012.41 1012.61 1012.81 1012.97 1013.13 1013.29 1013.45 1013.65 1013.85 1013.97 1014.17 1014.33 1014.45 1014.61 1014.73 1014.89 1015.05 1015.25 1015.41 1015.53 1015.65 1015.81 1015.97 1016.13 1016.25 1016.37 1016.49 1016.69 1016.89 1017.13 1017.25 1017.41 1017.57 1017.77 1017.97 1018.17 1018.41 1018.61 1018.81 1018.97 1019.17 1019.33 1019.49 1019.61 1019.81 1019.97
1009.33 1009.33 1009.41 1009.53 1009.57 1009.65 1009.73 1009.85 1009.93 1010.13 1010.33 1010.57 1010.77 1010.93 1011.13 1011.29 1011.45 1011.57 1011.77 1011.97 1012.21 1012.37 1012.53 1012.69 1012.93 1013.13 1013.25 1013.41 1013.61 1013.77 1013.97 1014.13 1014.29 1014.45 1014.61 1014.73 1014.85 1014.97 1015.13 1015.25 1015.41 1015.57 1015.73 1015.89 1016.05 1016.17 1016.29 1016.41 1016.53 1016.69 1016.85 1017.05 1017.25 1017.41 1017.61 1017.77 1017.97 1018.13 1018.33 1018.57 1018.81 1018.97 1019.21 1019.37 1019.49 1019.61 1019.77 1019.93 1020.13
1009.57 1009.65 1009.73 1009.81 1009.85 1009.93 1010.01 1010.13 1010.25 1010.45 1010.65 1010.85 1011.01 1011.17 1011.33 1011.49 1011.65 1011.81 1012.01 1012.25 1012.49 1012.69 1012.89 1013.09 1013.25 1013.41 1013.53 1013.69 1013.85 1014.05 1014.25 1014.41 1014.57 1014.77 1014.93 1015.01 1015.13 1015.25 1015.33 1015.45 1015.57 1015.73 1015.93 1016.09 1016.25 1016.37 1016.41 1016.49 1016.69 1016.85 1017.01 1017.21 1017.41 1017.61 1017.81 1017.97 1018.13 1018.29 1018.53 1018.77 1019.01 1019.25 1019.41 1019.53 1019.65 1019.77 1019.93 1020.13 1020.25
1009.93 1010.01 1010.09 1010.09 1010.13 1010.21 1010.33 1010.45 1010.61 1010.77 1010.97 1011.13 1011.25 1011.41 1011.57 1011.69 1011.85 1012.05 1012.25 1012.53 1012.77 1012.97 1013.21 1013.41 1013.57 1013.69 1013.85 1013.97 1014.13 1014.25 1014.45 1014.69 1014.85 1015.05 1015.21 1015.33 1015.41 1015.53 1015.57 1015.69 1015.77 1015.89 1016.05 1016.25 1016.41 1016.49 1016.57 1016.65 1016.85 1017.05 1017.25 1017.45 1017.65 1017.81 1017.97 1018.13 1018.25 1018.45 1018.69 1018.97 1019.21 1019.41 1019.53 1019.69 1019.85 1019.97 1020.13 1020.25 1020.41
1010.25 1010.29 1010.37 1010.41 1010.45 1010.57 1010.65 1010.77 1010.93 1011.05 1011.21 1011.37 1011.53 1011.69 1011.85 1011.97 1012.13 1012.29 1012.53 1012.77 1013.01 1013.25 1013.53 1013.69 1013.89 1014.05 1014.21 1014.29 1014.41 1014.53 1014.69 1014.93 1015.13 1015.29 1015.45 1015.61 1015.73 1015.85 1015.89 1015.97 1015.97 1016.09 1016.21 1016.41 1016.57 1016.65 1016.73 1016.89 1017.09 1017.25 1017.49 1017.69 1017.85 1017.97 1018.13 1018.29 1018.45 1018.65 1018.89 1019.13 1019.33 1019.53 1019.69 1019.89 1020.05 1020.13 1020.29 1020.45 1020.57
1010.49 1010.57 1010.57 1010.69 1010.77 1010.85 1010.97 1011.09 1011.21 1011.33 1011.49 1011.65 1011.77 1011.89 1012.05 1012.21 1012.37 1012.57 1012.73 1012.97 1013.25 1013.49 1013.77 1013.97 1014.21 1014.41 1014.57 1014.65 1014.69 1014.85 1014.97 1015.13 1015.33 1015.53 1015.69 1015.85 1015.93 1016.01 1016.13 1016.21 1016.29 1016.33 1016.41 1016.57 1016.73 1016.85 1016.93 1017.09 1017.33 1017.53 1017.69 1017.85 1018.01 1018.17 1018.37 1018.53 1018.69 1018.85 1019.01 1019.25 1019.45 1019.65 1019.85 1020.05 1020.17 1020.33 1020.49 1020.61 1020.73
1010.77 1010.85 1010.85 1010.93 1010.97 1011.09 1011.17 1011.29 1011.45 1011.57 1011.73 1011.85 1011.97 1012.09 1012.21 1012.41 1012.57 1012.77 1012.97 1013.25 1013.49 1013.77 1014.05 1014.29 1014.53 1014.69 1014.85 1014.97 1015.01 1015.13 1015.21 1015.37 1015.53 1015.69 1015.89 1016.01 1016.13 1016.21 1016.33 1016.45 1016.57 1016.61 1016.69 1016.81 1016.89 1017.01 1017.13 1017.25 1017.49 1017.69 1017.85 1018.05 1018.21 1018.37 1018.57 1018.77 1018.93 1019.05 1019.17 1019.37 1019.53 1019.73 1019.97 1020.13 1020.29 1020.45 1020.65 1020.81 1020.89
1010.97 1011.05 1011.13 1011.13 1011.25 1011.33 1011.41 1011.53 1011.69 1011.85 1011.97 1012.09 1012.21 1012.29 1012.41 1012.57 1012.73 1012.97 1013.21 1013.49 1013.81 1014.05 1014.29 1014.57 1014.73 1014.93 1015.09 1015.21 1015.29 1015.37 1015.49 1015.65 1015.77 1015.93 1016.09 1016.25 1016.33 1016.41 1016.57 1016.69 1016.73 1016.85 1016.89 1016.97 1017.09 1017.21 1017.37 1017.53 1017.69 1017.85 1017.97 1018.17 1018.37 1018.57 1018.77 1018.97 1019.13 1019.25 1019.37 1019.49 1019.69 1019.85 1020.01 1020.21 1020.41 1020.61 1020.81 1020.93 1021.05
1011.25 1011.33 1011.41 1011.41 1011.53 1011.69 1011.77 1011.85 1011.97 1012.09 1012.21 1012.33 1012.41 1012.53 1012.65 1012.81 1012.97 1013.21 1013.49 1013.77 1014.05 1014.29 1014.53 1014.77 1014.97 1015.17 1015.29 1015.41 1015.49 1015.61 1015.73 1015.89 1016.01 1016.13 1016.25 1016.37 1016.45 1016.57 1016.69 1016.85 1016.93 1016.97 1017.09 1017.13 1017.25 1017.41 1017.57 1017.73 1017.85 1018.01 1018.17 1018.37 1018.57 1018.73 1018.93 1019.13 1019.25 1019.41 1019.53 1019.69 1019.81 1019.97 1020.13 1020.29 1020.49 1020.69 1020.85 1020.97 1021.13
1011.53 1011.65 1011.73 1011.81 1011.93 1012.01 1012.13 1012.21 1012.25 1012.37 1012.45 1012.57 1012.65 1012.73 1012.85 1013.01 1013.21 1013.45 1013.73 1014.01 1014.25 1014.53 1014.73 1014.97 1015.17 1015.37 1015.49 1015.61 1015.73 1015.85 1015.97 1016.13 1016.25 1016.37 1016.45 1016.57 1016.61 1016.73 1016.85 1016.97 1017.09 1017.17 1017.25 1017.33 1017.45 1017.57 1017.73 1017.89 1018.05 1018.17 1018.37 1018.57 1018.73 1018.93 1019.13 1019.25 1019.41 1019.53 1019.69 1019.85 1019.97 1020.09 1020.25 1020.41 1020.61 1020.81 1020.97 1021.09 1021.17
1011.89 1011.97 1012.09 1012.17 1012.25 1012.37 1012.41 1012.49 1012.57 1012.69 1012.77 1012.85 1012.97 1013.01 1013.13 1013.29 1013.53 1013.77 1014.01 1014.25 1014.49 1014.69 1014.97 1015.13 1015.33 1015.53 1015.69 1015.81 1015.97 1016.09 1016.21 1016.29 1016.41 1016.57 1016.65 1016.73 1016.85 1016.93 1017.01 1017.13 1017.21 1017.29 1017.41 1017.45 1017.61 1017.73 1017.89 1018.05 1018.25 1018.41 1018.57 1018.73 1018.93 1019.13 1019.25 1019.41 1019.53 1019.69 1019.85 1019.97 1020.13 1020.25 1020.41 1020.57 1020.73 1020.93 1021.05 1021.13 1021.21
1012.25 1012.33 1012.41 1012.53 1012.57 1012.65 1012.69 1012.77 1012.85 1012.89 1012.97 1013.13 1013.17 1013.25 1013.41 1013.61 1013.85 1014.13 1014.33 1014.57 1014.73 1014.97 1015.17 1015.37 1015.53 1015.69 1015.85 1016.01 1016.13 1016.25 1016.41 1016.53 1016.61 1016.69 1016.81 1016.89 1016.97 1017.09 1017.21 1017.29 1017.41 1017.49 1017.57 1017.69 1017.81 1017.97 1018.13 1018.29 1018.45 1018.61 1018.81 1018.97 1019.13 1019.29 1019.41 1019.57 1019.73 1019.89 1020.01 1020.17 1020.29 1020.41 1020.57 1020.73 1020.85 1020.97 1021.09 1021.13 1021.21
1012.53 1012.61 1012.69 1012.73 1012.77 1012.85 1012.85 1012.93 1012.97 1013.05 1013.13 1013.21 1013.29 1013.49 1013.69 1013.97 1014.25 1014.45 1014.65 1014.81 1015.01 1015.21 1015.41 1015.53 1015.69 1015.85 1016.01 1016.17 1016.29 1016.41 1016.53 1016.69 1016.77 1016.85 1016.93 1017.01 1017.09 1017.21 1017.33 1017.41 1017.53 1017.61 1017.73 1017.85 1017.97 1018.13 1018.33 1018.49 1018.69 1018.85 1019.01 1019.17 1019.33 1019.49 1019.69 1019.85 1019.97 1020.09 1020.21 1020.37 1020.49 1020.57 1020.69 1020.85 1020.97 1021.05 1021.13 1021.17 1021.21
1012.77 1012.85 1012.89 1012.93 1012.97 1012.97 1012.97 1013.05 1013.13 1013.21 1013.25 1013.41 1013.57 1013.85 1014.09 1014.33 1014.57 1014.81 1014.97 1015.09 1015.25 1015.41 1015.57 1015.73 1015.85 1015.97 1016.17 1016.33 1016.41 1016.53 1016.65 1016.77 1016.85 1016.97 1017.05 1017.13 1017.21 1017.29 1017.41 1017.57 1017.69 1017.85 1017.93 1018.05 1018.21 1018.41 1018.57 1018.69 1018.85 1019.05 1019.25 1019.41 1019.57 1019.77 1019.93 1020.05 1020.17 1020.29 1020.41 1020.57 1020.69 1020.77 1020.85 1020.97 1021.09 1021.13 1021.17 1021.21 1021.17
1013.01 1013.05 1013.09 1013.09 1013.13 1013.13 1013.21 1013.29 1013.37 1013.49 1013.65 1013.81 1014.01 1014.25 1014.45 1014.69 1014.85 1015.05 1015.21 1015.33 1015.41 1015.57 1015.73 1015.85 1016.01 1016.13 1016.25 1016.45 1016.57 1016.69 1016.81 1016.85 1016.97 1017.05 1017.13 1017.25 1017.33 1017.45 1017.57 1017.73 1017.89 1018.01 1018.13 1018.25 1018.41 1018.61 1018.77 1018.97 1019.13 1019.25 1019.49 1019.69 1019.85 1020.05 1020.21 1020.29 1020.41 1020.53 1020.61 1020.69 1020.85 1020.93 1021.01 1021.09 1021.17 1021.25 1021.25 1021.21 1021.17
1013.33 1013.33 1013.29 1013.33 1013.41 1013.45 1013.53 1013.65 1013.77 1013.93 1014.09 1014.25 1014.41 1014.61 1014.77 1014.93 1015.09 1015.25 1015.41 1015.53 1015.69 1015.77 1015.89 1016.01 1016.13 1016.29 1016.41 1016.57 1016.69 1016.81 1016.89 1016.97 1017.09 1017.17 1017.25 1017.37 1017.45 1017.57 1017.69 1017.89 1018.09 1018.21 1018.37 1018.53 1018.65 1018.85 1018.97 1019.17 1019.33 1019.53 1019.69 1019.89 1020.13 1020.25 1020.41 1020.53 1020.61 1020.69 1020.85 1020.93 1021.01 1021.13 1021.17 1021.25 1021.29 1021.29 1021.25 1021.25 1021.25
1013.69 1013.65 1013.61 1013.65 1013.73 1013.85 1013.97 1014.09 1014.17 1014.29 1014.45 1014.61 1014.81 1014.97 1015.13 1015.25 1015.37 1015.53 1015.65 1015.77 1015.89 1016.01 1016.13 1016.25 1016.37 1016.49 1016.65 1016.77 1016.85 1016.89 1017.01 1017.13 1017.21 1017.33 1017.41 1017.49 1017.57 1017.69 1017.89 1018.09 1018.25 1018.41 1018.57 1018.77 1018.89 1019.05 1019.21 1019.37 1019.53 1019.69 1019.89 1020.13 1020.29 1020.45 1020.57 1020.69 1020.81 1020.89 1021.01 1021.13 1021.17 1021.25 1021.29 1021.33 1021.37 1021.33 1021.33 1021.29 1021.25
1014.01 1013.97 1013.93 1013.97 1014.13 1014.25 1014.37 1014.49 1014.61 1014.69 1014.85 1015.01 1015.13 1015.29 1015.41 1015.53 1015.69 1015.85 1015.93 1016.05 1016.13 1016.25 1016.41 1016.53 1016.65 1016.69 1016.85 1016.97 1017.01 1017.13 1017.17 1017.25 1017.37 1017.45 1017.57 1017.65 1017.77 1017.89 1018.09 1018.29 1018.53 1018.73 1018.85 1019.01 1019.17 1019.29 1019.41 1019.61 1019.77 1019.93 1020.13 1020.29 1020.45 1020.57 1020.69 1020.85 1020.97 1021.09 1021.13 1021.21 1021.29 1021.33 1021.33 1021.37 1021.41 1021.41 1021.37 1021.37 1021.33
1014.37 1014.29 1014.29 1014.41 1014.53 1014.65 1014.73 1014.81 1014.93 1015.05 1015.17 1015.33 1015.49 1015.61 1015.73 1015.85 1016.01 1016.13 1016.21 1016.29 1016.37 1016.49 1016.61 1016.73 1016.85 1016.93 1017.01 1017.13 1017.21 1017.29 1017.41 1017.49 1017.53 1017.65 1017.77 1017.85 1017.97 1018.13 1018.33 1018.57 1018.81 1019.01 1019.17 1019.25 1019.41 1019.53 1019.69 1019.85 1020.01 1020.13 1020.29 1020.45 1020.61 1020.73 1020.85 1021.01 1021.13 1021.21 1021.25 1021.29 1021.33 1021.37 1021.41 1021.41 1021.41 1021.41 1021.41 1021.41 1021.41
1014.81 1014.77 1014.77 1014.81 1014.89 1014.97 1015.05 1015.13 1015.25 1015.37 1015.49 1015.65 1015.81 1015.93 1016.01 1016.13 1016.29 1016.41 1016.49 1016.53 1016.61 1016.73 1016.85 1016.97 1017.05 1017.13 1017.25 1017.33 1017.45 1017.53 1017.61 1017.69 1017.81 1017.89 1018.01 1018.13 1018.25 1018.41 1018.61 1018.85 1019.09 1019.29 1019.49 1019.57 1019.69 1019.85 1019.97 1020.13 1020.25 1020.33 1020.45 1020.61 1020.77 1020.89 1020.97 1021.13 1021.21 1021.29 1021.33 1021.33 1021.33 1021.41 1021.41 1021.41 1021.45 1021.45 1021.45 1021.49 1021.53
1015.17 1015.13 1015.13 1015.17 1015.21 1015.25 1015.33 1015.45 1015.53 1015.69 1015.81 1015.97 1016.09 1016.21 1016.33 1016.41 1016.57 1016.69 1016.73 1016.81 1016.89 1016.97 1017.05 1017.13 1017.29 1017.41 1017.49 1017.57 1017.69 1017.85 1017.93 1018.01 1018.13 1018.21 1018.33 1018.45 1018.61 1018.77 1018.93 1019.13 1019.41 1019.61 1019.77 1019.89 1019.97 1020.13 1020.25 1020.33 1020.45 1020.57 1020.65 1020.73 1020.85 1020.97 1021.09 1021.17 1021.25 1021.25 1021.29 1021.29 1021.37 1021.41 1021.45 1021.49 1021.53 1021.53 1021.53 1021.53 1021.57
1015.49 1015.49 1015.49 1015.49 1015.53 1015.57 1015.69 1015.77 1015.89 1016.01 1016.13 1016.21 1016.33 1016.45 1016.57 1016.69 1016.81 1016.89 1016.97 1017.09 1017.13 1017.25 1017.33 1017.45 1017.57 1017.69 1017.81 1017.93 1018.01 1018.17 1018.29 1018.41 1018.49 1018.57 1018.69 1018.85 1018.97 1019.13 1019.29 1019.49 1019.69 1019.89 1020.05 1020.17 1020.25 1020.33 1020.41 1020.49 1020.61 1020.73 1020.81 1020.89 1020.97 1021.09 1021.13 1021.21 1021.25 1021.25 1021.25 1021.33 1021.37 1021.41 1021.49 1021.53 1021.53 1021.53 1021.53 1021.53 1021.57
1015.81 1015.81 1015.81 1015.81 1015.85 1015.93 1015.97 1016.09 1016.21 1016.33 1016.41 1016.53 1016.61 1016.73 1016.85 1016.93 1017.01 1017.13 1017.25 1017.33 1017.41 1017.53 1017.65 1017.77 1017.93 1018.05 1018.17 1018.29 1018.41 1018.57 1018.69 1018.85 1018.93 1019.01 1019.09 1019.21 1019.37 1019.53 1019.69 1019.85 1020.01 1020.17 1020.25 1020.41 1020.45 1020.49 1020.57 1020.61 1020.73 1020.85 1020.93 1021.01 1021.09 1021.13 1021.13 1021.13 1021.17 1021.21 1021.25 1021.29 1021.37 1021.41 1021.45 1021.53 1021.53 1021.53 1021.53 1021.53 1021.53
Thickness
5647 5648 5649 5650 5649 5649 5648 5647 5646 5645 5645 5644 5643 5642 5641 5640 5639 5638 5637 5636 5635 5633 5632 5631 5630 5629 5628 5626 5625 5624 5622 5621 5618 5616 5615 5613 5612 5610 5609 5606 5607 5606 5605 5604 5602 5600 5599 5597 5594 5592 5591 5590 5588 5586 5584 5582 5581 5578 5576 5575 5574 5573 5574 5574 5573 5572 5570 5569 5569
5644 5644 5645 5646 5646 5645 5645 5644 5643 5642 5641 5640 5639 5639 5638 5637 5636 5635 5634 5633 5631 5630 5628 5627 5626 5625 5624 5622 5621 5619 5618 5617 5614 5612 5611 5609 5608 5606 5603 5602 5602 5602 5600 5599 5597 5596 5595 5594 5592 5590 5587 5586 5585 5584 5582 5582 5579 5577 5574 5572 5571 5571 5570 5569 5568 5567 5566 5565 5566
5640 5640 5641 5642 5642 5642 5642 5641 5640 5639 5638 5637 5636 5635 5633 5633 5632 5631 5630 5629 5627 5626 5624 5623 5622 5621 5620 5618 5616 5615 5613 5611 5609 5608 5606 5605 5604 5601 5598 5597 5597 5597 5595 5593 5591 5590 5590 5590 5589 5587 5585 5584 5583 5583 5581 5580 5578 5575 5573 5571 5570 5569 5568 5566 5564 5563 5562 5562 5563
5637 5636 5637 5638 5638 5639 5639 5638 5638 5636 5635 5634 5632 5631 5629 5629 5627 5627 5625 5625 5623 5622 5620 5618 5617 5616 5614 5613 5611 5609 5607 5605 5604 5602 5601 5600 5599 5597 5594 5593 5593 5592 5590 5586 5584 5583 5583 5584 5585 5584 5583 5582 5581 5581 5580 5578 5576 5574 5572 5570 5571 5570 5568 5566 5563 5561 5560 5560 5561
5633 5633 5634 5634 5634 5635 5635 5635 5634 5633 5632 5630 5629 5627 5626 5625 5624 5622 5621 5619 5618 5617 5615 5613 5611 5609 5608 5606 5605 5603 5601 5599 5597 5596 5595 5595 5594 5592 5590 5589 5589 5588 5585 5581 5579 5578 5578 5578 5578 5579 5579 5579 5578 5578 5577 5575 5573 5570 5568 5567 5567 5567 5566 5565 5562 5560 5559 5559 5559
5631 5631 5630 5631 5631 5631 5631 5631 5630 5629 5628 5626 5625 5624 5622 5621 5619 5617 5615 5614 5612 5610 5609 5607 5604 5602 5600 5599 5598 5596 5594 5592 5590 5590 5589 5588 5588 5587 5587 5586 5585 5584 5581 5578 5575 5574 5574 5573 5574 5574 5574 5574 5574 5573 5571 5569 5569 5567 5565 5563 5562 5562 5562 5560 5559 5559 5559 5558 5557
5627 5628 5627 5627 5627 5627 5627 5627 5626 5625 5624 5622 5622 5620 5619 5617 5615 5612 5610 5608 5605 5603 5601 5598 5597 5594 5592 5591 5589 5588 5586 5584 5584 5583 5582 5582 5581 5582 5582 5581 5580 5579 5577 5574 5571 5570 5570 5570 5570 5570 5570 5570 5569 5567 5566 5565 5564 5563 5561 5559 5558 5557 5557 5557 5556 5556 5557 5557 5556
5623 5624 5624 5624 5623 5623 5623 5622 5621 5620 5619 5618 5617 5616 5614 5611 5609 5607 5604 5601 5598 5595 5593 5590 5589 5587 5585 5583 5582 5580 5579 5577 5576 5575 5574 5574 5575 5577 5577 5576 5574 5573 5572 5570 5568 5566 5566 5566 5566 5567 5566 5566 5564 5563 5562 5561 5561 5560 5558 5556 5554 5553 5553 5553 5553 5553 5553 5553 5552
5620 5620 5620 5620 5620 5619 5618 5618 5617 5615 5615 5613 5612 5610 5608 5605 5603 5600 5597 5594 5592 5588 5586 5583 5581 5579 5577 5575 5573 5572 5571 5569 5568 5567 5566 5567 5569 5570 5570 5570 5569 5568 5567 5565 5564 5562 5562 5561 5561 5562 5562 5561 5561 5559 5558 5558 5558 5556 5554 5552 5550 5549 5549 5549 5548 5549 5549 5548 5548
5617 5617 5617 5617 5616 5615 5614 5613 5611 5610 5609 5607 5605 5603 5600 5598 5595 5592 5590 5587 5584 5581 5577 5576 5573 5571 5569 5566 5564 5562 5561 5560 5559 5559 5559 5560 5562 5564 5564 5564 5564 5564 5563 5560 5559 5558 5557 5556 5556 5556 5557 5557 5557 5555 5554 5554 5553 5551 5550 5548 5547 5546 5545 5544 5544 5544 5544 5543 5542
5614 5614 5614 5613 5612 5611 5610 5608 5606 5604 5603 5601 5598 5595 5593 5589 5586 5583 5581 5578 5575 5572 5570 5568 5565 5563 5561 5558 5556 5554 5553 5551 5551 5551 5551 5553 5555 5557 5558 5559 5559 5559 5558 5556 5555 5554 5553 5552 5552 5551 5551 5552 5551 5551 5550 5549 5548 5546 5545 5543 5542 5542 5540 5540 5539 5539 5539 5539 5538
5611 5611 5610 5609 5608 5607 5605 5603 5601 5599 5596 5593 5590 5587 5584 5581 5577 5575 5572 5569 5567 5564 5561 5560 5557 5555 5553 5551 5549 5547 5546 5544 5543 5543 5544 5545 5547 5550 5551 5552 5552 5552 5552 5551 5551 5550 5549 5548 5547 5547 5546 5546 5546 5547 5546 5545 5544 5542 5541 5540 5538 5537 5536 5535 5535 5535 5535 5534 5532
5607 5607 5606 5605 5603 5601 5600 5598 5595 5593 5590 5586 5581 5577 5574 5571 5568 5566 5563 5561 5558 5555 5553 5551 5549 5547 5546 5544 5542 5541 5540 5538 5537 5537 5537 5538 5540 5541 5544 5545 5546 5545 5545 5545 5545 5545 5545 5544 5543 5542 5542 5541 5542 5542 5542 5541 5540 5539 5537 5537 5535 5534 5533 5532 5531 5530 5530 5529 5528
5604 5603 5602 5600 5598 5596 5594 5592 5589 5585 5582 5577 5572 5569 5566 5562 5560 5558 5555 5552 5550 5547 5544 5543 5541 5540 5539 5538 5536 5535 5534 5533 5532 5532 5531 5532 5532 5534 5536 5538 5539 5539 5539 5539 5539 5540 5540 5539 5539 5538 5537 5537 5537 5537 5537 5536 5536 5535 5533 5533 5532 5530 5529 5529 5528 5527 5526 5524 5523
5600 5598 5597 5595 5593 5591 5588 5586 5582 5577 5572 5568 5564 5561 5557 5555 5552 5550 5547 5544 5541 5539 5537 5536 5534 5533 5532 5531 5531 5530 5529 5528 5527 5527 5527 5527 5527 5528 5530 5531 5533 5533 5533 5533 5533 5534 5534 5534 5533 5533 5533 5533 5532 5532 5532 5532 5530 5530 5529 5529 5528 5527 5526 5525 5524 5523 5521 5520 5518
5595 5593 5592 5590 5587 5585 5582 5577 5572 5567 5564 5560 5556 5553 5550 5547 5544 5541 5539 5536 5534 5532 5530 5529 5528 5527 5526 5525 5525 5525 5524 5523 5523 5522 5522 5522 5523 5523 5524 5524 5526 5527 5527 5528 5528 5528 5528 5529 5529 5529 5529 5529 5528 5527 5527 5526 5526 5525 5524 5524 5523 5522 5521 5520 5520 5518 5517 5516 5514
5590 5587 5586 5584 5581 5577 5573 5569 5564 5561 5556 5553 5550 5547 5544 5540 5537 5534 5531 5529 5527 5526 5524 5522 5522 5521 5520 5519 5519 5519 5519 5518 5517 5517 5517 5517 5517 5518 5518 5519 5519 5520 5521 5522 5523 5523 5523 5523 5523 5524 5524 5523 5523 5522 5521 5521 5521 5520 5519 5518 5518 5517 5516 5516 5515 5514 5512 5511 5509
5584 5582 5579 5576 5573 5569 5565 5561 5558 5554 5551 5547 5545 5541 5538 5534 5531 5527 5525 5522 5521 5519 5518 5517 5516 5515 5515 5514 5513 5513 5513 5512 5511 5510 5510 5511 5511 5512 5513 5513 5514 5515 5515 5517 5517 5517 5517 5517 5518 5519 5519 5518 5516 5516 5516 5516 5516 5515 5514 5514 5512 5512 5511 5510 5509 5509 5508 5506 5505
5578 5575 5572 5568 5564 5561 5558 5555 5552 5549 5545 5542 5539 5535 5531 5528 5524 5521 5518 5516 5514 5513 5512 5511 5510 5510 5509 5508 5507 5507 5506 5506 5504 5505 5504 5505 5506 5506 5507 5507 5508 5509 5510 5511 5511 5511 5512 5512 5514 5514 5514 5513 5512 5511 5511 5511 5511 5510 5509 5508 5507 5506 5506 5505 5504 5504 5503 5501 5500
5572 5569 5565 5561 5558 5555 5552 5549 5546 5543 5540 5536 5533 5529 5525 5522 5518 5515 5512 5510 5508 5507 5506 5506 5505 5504 5503 5502 5502 5501 5500 5500 5498 5498 5498 5499 5500 5501 5502 5502 5503 5504 5504 5505 5505 5506 5506 5507 5508 5509 5509 5508 5507 5507 5507 5507 5506 5505 5504 5503 5502 5502 5501 5500 5499 5498 5497 5496 5495
5566 5562 5559 5555 5552 5550 5546 5543 5541 5537 5534 5530 5527 5524 5520 5516 5513 5510 5507 5504 5503 5501 5501 5499 5499 5498 5498 5497 5496 5496 5495 5494 5494 5493 5493 5493 5494 5496 5496 5497 5498 5499 5499 5499 5500 5500 5501 5503 5503 5503 5503 5504 5503 5502 5501 5501 5500 5500 5500 5498 5498 5497 5495 5495 5494 5493 5492 5491 5490
5559 5556 5553 5550 5547 5544 5541 5538 5534 5531 5528 5524 5522 5519 5515 5512 5508 5505 5502 5500 5498 5496 5495 5494 5494 5493 5493 5491 5491 5491 5490 5489 5488 5487 5487 5488 5489 5490 5491 5493 5494 5494 5495 5494 5495 5495 5496 5497 5498 5498 5498 5498 5497 5496 5496 5496 5496 5495 5495 5494 5493 5492 5491 5489 5489 5488 5487 5486 5485
5554 5550 5548 5545 5542 5538 5535 5532 5529 5525 5522 5520 5516 5514 5511 5508 5504 5501 5499 5496 5494 5492 5491 5489 5489 5487 5487 5486 5486 5486 5485 5485 5483 5483 5483 5483 5483 5484 5486 5488 5489 5490 5491 5490 5491 5491 5492 5492 5492 5492 5492 5492 5492 5492 5491 5491 5491 5491 5490 5489 5488 5487 5487 5485 5484 5484 5482 5481 5480
5549 5546 5543 5540 5537 5533 5529 5526 5523 5520 5517 5515 5512 5510 5507 5504 5501 5498 5496 5493 5491 5489 5487 5485 5484 5482 5481 5481 5481 5481 5481 5480 5479 5479 5478 5479 5479 5480 5481 5483 5484 5485 5486 5486 5486 5486 5487 5487 5487 5487 5487 5488 5487 5487 5487 5487 5487 5486 5486 5485 5484 5483 5482 5481 5480 5479 5478 5477 5476
5544 5541 5538 5535 5531 5528 5525 5521 5517 5515 5512 5509 5508 5506 5504 5501 5499 5496 5493 5490 5488 5485 5483 5482 5480 5478 5477 5476 5477 5477 5477 5476 5476 5475 5475 5475 5475 5476 5476 5477 5478 5480 5482 5482 5481 5482 5483 5483 5483 5483 5483 5483 5483 5483 5482 5482 5482 5482 5482 5481 5480 5479 5478 5477 5476 5475 5474 5473 5472
5540 5537 5534 5530 5527 5523 5519 5516 5513 5511 5508 5506 5504 5502 5500 5498 5496 5493 5490 5487 5484 5481 5480 5478 5476 5474 5473 5473 5473 5473 5473 5472 5472 5472 5472 5471 5472 5472 5472 5473 5473 5475 5477 5478 5477 5477 5478 5478 5479 5479 5479 5479 5479 5478 5478 5478 5477 5477 5477 5477 5477 5476 5475 5473 5472 5471 5470 5470 5469
5536 5532 5529 5526 5522 5519 5515 5511 5509 5506 5504 5502 5500 5498 5497 5495 5493 5490 5487 5483 5481 5478 5476 5474 5472 5471 5471 5470 5471 5470 5469 5468 5468 5468 5468 5468 5469 5469 5469 5469 5469 5470 5471 5473 5473 5473 5474 5474 5475 5475 5475 5475 5475 5475 5474 5474 5474 5474 5474 5473 5473 5472 5471 5470 5469 5468 5467 5466 5465
5531 5528 5524 5521 5517 5514 5511 5508 5505 5503 5501 5499 5497 5495 5493 5491 5489 5486 5483 5481 5478 5476 5473 5471 5469 5468 5467 5467 5467 5467 5466 5465 5464 5464 5464 5465 5465 5465 5465 5465 5466 5467 5468 5469 5470 5470 5470 5471 5471 5471 5471 5471 5471 5471 5471 5470 5471 5470 5470 5470 5469 5469 5468 5467 5466 5465 5464 5463 5462
5526 5523 5519 5516 5513 5510 5507 5504 5502 5500 5497 5495 5494 5492 5490 5488 5485 5482 5479 5477 5475 5473 5471 5469 5467 5466 5465 5464 5463 5463 5462 5462 5461 5461 5461 5461 5461 5462 5462 5462 5463 5464 5465 5465 5466 5467 5467 5467 5467 5468 5468 5467 5467 5467 5467 5467 5467 5467 5467 5466 5465 5465 5465 5463 5463 5461 5460 5460 5459
5522 5519 5515 5512 5509 5506 5504 5501 5499 5497 5495 5493 5491 5489 5487 5484 5481 5478 5475 5473 5471 5469 5468 5466 5465 5463 5462 5461 5461 5460 5459 5458 5458 5459 5459 5459 5459 5459 5459 5460 5460 5461 5462 5462 5463 5463 5464 5464 5464 5464 5464 5464 5464 5464 5464 5464 5464 5464 5463 5463 5462 5462 5461 5460 5459 5458 5458 5457 5456
5518 5515 5513 5509 5507 5504 5502 5500 5497 5495 5493 5491 5489 5486 5483 5480 5477 5474 5472 5470 5468 5466 5464 5463 5462 5461 5460 5459 5458 5457 5456 5456 5456 5456 5456 5456 5457 5457 5457 5457 5458 5459 5459 5460 5460 5461 5461 5461 5461 5461 5461 5461 5461 5461 5461 5460 5460 5460 5460 5459 5459 5458 5458 5456 5456 5456 5455 5454 5454
5515 5513 5510 5507 5505 5502 5500 5497 5495 5493 5491 5488 5486 5483 5480 5476 5473 5471 5468 5467 5465 5463 5462 5461 5460 5459 5458 5456 5456 5455 5455 5454 5454 5454 5454 5454 5454 5454 5455 5455 5455 5456 5457 5458 5458 5458 5458 5459 5459 5458 5458 5458 5458 5457 5457 5457 5456 5456 5456 5456 5455 5455 5454 5454 5453 5452 5452 5451 5451
5512 5510 5508 5505 5503 5501 5498 5495 5493 5490 5487 5484 5481 5479 5476 5473 5470 5468 5466 5464 5463 5462 5460 5459 5458 5457 5456 5455 5454 5453 5453 5452 5452 5452 5452 5452 5452 5453 5453 5453 5454 5454 5455 5456 5456 5456 5456 5456 5456 5455 5456 5455 5454 5454 5453 5453 5453 5453 5453 5452 5452 5451 5451 5450 5450 5449 5449 5449 5449
5509 5507 5506 5503 5501 5498 5495 5493 5490 5487 5484 5481 5478 5475 5473 5470 5468 5466 5463 5462 5461 5459 5458 5457 5456 5455 5454 5453 5452 5451 5451 5451 5450 5451 5451 5451 5452 5452 5452 5452 5452 5453 5453 5453 5453 5453 5453 5453 5453 5453 5452 5452 5451 5450 5450 5450 5450 5450 5449 5449 5448 5448 5447 5447 5446 5446 5446 5446 5446
5506 5504 5503 5501 5498 5495 5492 5490 5487 5484 5481 5478 5475 5472 5470 5468 5465 5463 5461 5460 5458 5457 5455 5454 5453 5452 5452 5451 5451 5450 5450 5450 5450 5450 5450 5451 5451 5451 5451 5451 5451 5451 5451 5451 5451 5451 5451 5450 5450 5450 5450 5449 5448 5448 5448 5448 5447 5446 5446 5446 5445 5445 5444 5444 5443 5443 5443 5443 5442
5503 5502 5500 5497 5495 5492 5489 5487 5484 5482 5479 5476 5474 5471 5468 5466 5463 5461 5459 5458 5457 5456 5454 5453 5452 5451 5450 5450 5450 5450 5450 5449 5449 5450 5449 5450 5450 5450 5450 5450 5449 5448 5448 5448 5448 5449 5448 5448 5448 5447 5447 5446 5446 5445 5445 5444 5443 5443 5443 5443 5442 5442 5441 5441 5440 5440 5440 5440 5439
5499 5498 5497 5494 5492 5489 5487 5484 5482 5480 5477 5474 5472 5469 5467 5465 5462 5460 5458 5457 5456 5455 5453 5452 5451 5451 5450 5450 5449 5449 5449 5449 5449 5449 5449 5449 5449 5449 5448 5448 5447 5446 5446 5446 5446 5446 5445 5445 5445 5444 5444 5444 5443 5442 5442 5441 5441 5441 5440 5440 5440 5440 5439 5439 5438 5438 5437 5437 5436
5496 5494 5493 5491 5489 5487 5484 5482 5480 5477 5475 5472 5470 5468 5466 5464 5461 5459 5458 5457 5456 5455 5454 5452 5451 5451 5450 5450 5449 5449 5449 5448 5449 5449 5449 5448 5448 5448 5447 5446 5445 5443 5444 5443 5443 5443 5442 5442 5442 5442 5442 5441 5440 5440 5440 5440 5439 5439 5438 5438 5438 5437 5437 5436 5436 5435 5434 5434 5433
5492 5490 5489 5488 5486 5484 5482 5479 5477 5475 5473 5471 5468 5466 5464 5462 5461 5459 5458 5456 5455 5454 5454 5452 5451 5450 5450 5449 5449 5449 5448 5448 5448 5447 5447 5446 5446 5445 5445 5444 5442 5441 5441 5440 5440 5440 5440 5439 5439 5439 5439 5439 5438 5438 5438 5437 5437 5437 5436 5436 5435 5435 5434 5433 5433 5432 5432 5430 5429
5489 5487 5486 5485 5483 5482 5479 5477 5475 5473 5470 5469 5467 5465 5463 5461 5460 5458 5457 5455 5455 5454 5453 5452 5451 5449 5449 5448 5448 5447 5446 5446 5446 5445 5445 5444 5444 5443 5442 5441 5440 5439 5438 5438 5438 5438 5438 5437 5437 5437 5437 5436 5436 5435 5435 5435 5435 5435 5435 5434 5433 5432 5432 5430 5430 5429 5429 5427 5426
5486 5484 5483 5482 5480 5478 5477 5475 5473 5471 5468 5467 5465 5463 5462 5460 5459 5457 5456 5454 5453 5452 5451 5450 5449 5448 5447 5446 5445 5445 5444 5443 5443 5442 5442 5441 5441 5440 5439 5438 5437 5437 5436 5436 5436 5436 5436 5436 5435 5435 5434 5434 5433 5433 5433 5433 5433 5433 5433 5432 5431 5430 5429 5428 5427 5426 5426 5425 5424